Wind_Speed
23 23 23 25 25 24 25 25 24 24 24 24 23 22 23 22 21 22 22 23 25 25 26 25 26 27 27 28 26 26 26 26 27 27 26 27 27 26 25 24 25 24 24
26 26 24 24 26 26 25 24 25 23 22 20 21 21 21 23 24 25 26 27 28 29 30 31 32 31 30 30 30 29 28 29 29 29 29 29 29 29 28 26 25 25 27
26 26 25 25 26 25 23 26 25 24 23 24 25 25 25 25 27 29 30 31 32 33 33 34 35 34 34 35 35 34 34 33 32 32 32 31 31 30 30 30 29 28 28
23 24 25 26 28 27 25 23 27 23 26 30 30 31 32 33 33 34 35 35 36 36 36 36 37 37 38 38 38 38 37 37 37 36 35 35 34 33 32 32 32 31 31
22 21 22 21 21 22 20 17 22 24 27 29 31 32 34 37 38 38 38 38 39 39 39 39 40 40 40 40 40 40 40 40 39 39 39 37 36 36 35 35 34 33 33
24 25 23 21 20 20 22 23 25 27 30 32 34 34 36 37 38 40 40 40 42 42 43 43 43 43 42 40 39 38 37 37 36 36 36 36 35 36 37 37 38 37 36
26 24 28 26 29 27 26 26 26 28 31 33 36 36 37 39 40 41 43 44 45 46 46 46 44 42 41 40 39 39 39 40 41 41 40 40 40 39 38 36 38 40 41
36 26 28 27 26 26 28 30 30 31 33 36 38 39 42 42 44 45 47 48 48 48 47 45 44 44 44 44 45 46 46 47 47 47 48 48 47 47 45 44 42 41 40
29 34 31 28 25 26 27 31 32 34 37 39 40 42 44 46 48 49 51 52 52 50 47 45 47 48 49 50 52 52 54 55 57 58 57 57 56 54 53 53 51 50 48
34 20 21 22 23 26 29 33 35 38 40 42 44 46 48 49 50 51 52 52 51 50 52 53 55 57 58 59 60 61 62 62 62 64 66 66 65 64 63 61 60 58 56
22 11 16 20 24 29 33 36 39 41 44 45 48 50 52 55 55 54 50 50 52 56 59 61 64 66 67 68 69 70 71 70 70 69 70 70 69 69 69 70 68 67 65
19 18 19 25 29 34 36 39 43 45 47 49 52 54 55 55 54 55 56 58 61 64 67 69 71 72 74 74 76 77 77 77 77 77 76 76 75 74 75 75 76 75 74
21 26 28 29 35 39 41 45 49 47 50 54 55 54 55 58 61 63 66 69 70 72 73 74 75 76 78 79 80 81 81 81 81 82 83 85 85 83 82 81 82 83 82
29 30 35 38 40 43 46 49 50 51 53 55 57 61 65 68 70 72 74 76 77 77 77 78 78 78 80 81 83 84 85 86 87 87 88 89 91 92 92 92 91 89 89
31 37 40 42 45 47 50 51 52 57 60 64 66 69 71 73 76 79 81 82 84 84 81 78 80 79 81 82 83 84 84 83 82 81 80 81 81 80 82 86 91 96 98
36 39 42 45 48 49 52 56 60 63 65 68 71 74 78 81 84 86 86 85 84 82 79 75 73 70 68 67 65 61 56 53 50 48 47 48 48 46 47 49 52 56 65
39 42 45 47 50 55 58 61 63 66 69 73 77 80 83 84 84 81 77 73 68 66 61 55 55 50 43 42 43 44 45 46 47 49 50 51 50 47 46 46 45 45 46
44 45 48 53 56 59 61 64 68 71 74 76 78 80 80 77 68 61 57 52 50 50 44 31 35 38 41 43 43 42 42 42 43 44 47 50 51 51 49 48 46 45 45
46 52 56 58 61 64 67 71 73 75 74 74 72 71 62 51 45 44 43 44 41 33 36 35 35 38 40 42 43 43 45 45 44 44 46 47 50 51 50 48 46 43 42
54 57 60 64 68 72 75 75 75 72 67 61 55 46 39 35 34 31 28 30 32 33 35 35 36 37 37 39 40 42 42 41 40 40 42 44 47 48 47 46 44 42 42
57 61 66 70 75 78 78 76 70 61 50 40 31 25 24 26 28 29 27 29 31 33 34 34 34 34 32 34 36 36 34 35 34 34 34 35 38 38 39 39 39 39 39
61 67 71 76 81 82 78 68 58 42 29 26 26 26 28 29 30 31 32 32 33 33 32 32 33 33 31 32 33 32 32 32 33 35 33 32 28 29 30 31 33 36 36
65 69 75 80 82 74 62 50 35 26 26 26 27 29 29 30 32 31 33 34 34 34 34 34 33 32 32 32 32 32 34 34 34 35 35 33 30 29 30 30 30 29 31
69 75 78 77 62 48 37 28 28 28 26 28 29 30 31 32 33 32 32 33 33 33 34 35 36 35 33 33 33 34 34 34 35 36 38 35 37 35 34 34 32 30 28
71 71 64 45 36 28 28 28 29 28 28 28 31 32 33 31 32 33 32 32 34 35 36 37 37 37 37 37 35 34 34 34 35 37 40 41 41 41 39 38 37 35 32
67 52 38 33 32 31 31 30 30 31 30 29 31 33 36 35 34 34 35 34 33 35 37 40 40 41 40 38 37 35 34 34 36 34 35 41 46 46 43 42 42 39 37
Wind_Direction
282 283 282 283 281 280 277 275 274 276 277 276 276 278 279 279 280 281 282 282 283 283 282 281 279 278 275 273 272 271 272 275 277 277 277 276 274 270 267 263 259 253 250
282 281 280 280 280 276 272 272 272 271 270 270 272 274 278 280 282 284 285 285 284 284 284 283 280 279 276 273 272 271 268 268 268 270 271 271 270 270 267 263 258 253 251
281 277 276 272 274 275 274 267 264 265 269 272 274 276 278 282 287 288 287 285 284 281 279 280 278 276 275 275 273 272 271 270 268 267 267 268 267 266 265 263 258 252 249
274 277 273 274 274 272 273 272 259 261 264 270 277 280 283 288 289 287 284 283 281 281 280 279 279 277 277 276 274 273 271 270 269 268 267 266 265 265 264 262 260 254 247
274 273 267 267 268 270 270 269 256 256 270 279 284 284 284 284 285 285 284 283 281 281 280 278 277 276 274 274 273 273 273 272 270 269 268 266 266 264 262 262 259 257 254
280 280 261 256 261 268 273 272 269 272 275 275 277 277 279 280 282 282 281 281 281 281 280 279 277 276 275 273 272 271 271 271 271 272 270 269 268 266 264 261 260 257 254
265 273 264 262 264 266 273 274 277 280 280 280 281 281 282 281 282 282 282 281 280 279 279 277 276 274 272 272 272 271 270 269 270 270 269 270 270 268 266 262 259 257 255
279 254 260 264 268 268 274 279 281 282 283 285 284 284 285 284 283 281 280 279 278 277 274 273 270 270 271 273 274 274 274 273 270 269 270 268 268 268 267 265 261 259 257
283 283 261 260 261 268 273 277 278 280 284 284 283 282 282 282 282 283 282 281 280 276 271 268 268 268 269 269 270 270 271 273 275 274 272 269 266 264 265 264 263 259 257
274 254 254 262 267 274 283 280 282 283 283 282 282 283 283 283 282 281 281 279 277 275 274 274 273 272 272 271 271 270 269 267 266 268 270 270 270 268 264 261 259 260 259
242 243 271 274 279 288 286 284 287 286 283 281 284 284 285 285 284 282 278 276 275 276 276 276 277 277 277 276 276 275 273 271 269 266 264 263 262 262 263 264 262 257 254
279 285 295 289 288 288 283 284 288 286 283 286 286 285 285 284 282 280 280 278 278 278 278 278 278 277 276 276 276 276 275 273 271 269 267 265 262 259 257 257 257 257 256
302 294 296 292 292 290 289 289 291 286 286 286 285 285 284 282 282 282 282 281 280 279 280 280 280 279 278 277 276 275 273 271 270 269 268 267 265 262 258 255 254 252 252
296 285 289 295 294 291 292 292 290 288 288 287 288 287 287 287 287 286 285 284 283 283 282 282 282 283 282 281 280 278 276 274 272 271 269 267 266 265 263 260 257 253 251
287 289 292 295 293 291 291 290 292 291 292 293 293 292 292 292 291 290 289 288 287 285 285 286 285 284 283 282 280 278 277 276 276 274 272 271 269 268 266 263 261 257 254
291 293 293 292 291 292 293 294 293 295 294 295 296 296 295 294 292 292 291 290 289 288 288 286 284 283 282 282 282 281 281 280 278 275 271 268 265 262 261 259 259 259 257
294 293 292 293 295 295 296 295 294 295 297 298 298 297 295 294 292 292 292 290 290 288 289 289 286 283 283 283 283 282 280 278 276 274 273 271 267 264 264 264 264 263 262
295 298 297 297 296 294 294 296 299 300 299 299 298 298 296 296 296 293 293 292 291 293 296 291 290 288 287 285 284 284 285 285 283 281 277 273 271 268 263 262 262 262 263
299 298 297 298 299 300 300 301 301 301 302 301 299 299 300 299 298 300 301 298 296 293 294 296 294 290 288 286 284 285 284 284 284 281 279 276 273 269 267 262 260 260 260
301 302 303 304 304 303 301 301 300 301 299 298 300 305 306 307 308 311 306 300 297 297 297 298 295 293 293 291 290 287 287 285 283 281 279 277 274 270 269 266 262 258 258
307 307 305 304 302 300 298 297 299 296 294 294 302 311 310 309 309 308 304 296 293 294 296 295 294 296 295 293 290 290 291 289 286 285 286 283 276 274 271 268 263 258 257
305 305 304 303 300 298 298 296 293 289 287 295 302 304 305 304 303 302 300 299 297 296 296 294 293 295 295 294 294 294 292 288 287 287 287 287 282 279 274 267 261 258 257
306 308 308 304 299 299 295 291 284 279 285 289 292 296 297 297 297 297 296 298 297 296 295 295 296 293 292 291 291 289 288 289 287 285 284 281 277 273 271 266 263 263 262
308 311 309 301 301 298 292 284 282 282 283 285 288 291 292 292 292 294 294 295 296 296 293 293 293 290 289 287 286 287 289 290 288 285 281 275 276 274 270 269 269 268 265
313 309 304 303 300 297 291 286 284 283 283 282 283 287 288 290 291 293 296 295 295 297 298 296 295 290 286 287 290 290 292 290 288 285 281 279 271 267 266 266 266 265 264
311 306 299 299 295 292 290 289 286 284 283 281 281 285 288 291 293 294 297 300 301 296 296 296 293 289 287 284 285 289 293 296 295 296 293 282 269 263 257 258 261 261 260
Height
5839 5838 5837 5837 5836 5835 5834 5834 5834 5834 5834 5834 5833 5833 5833 5833 5832 5832 5831 5830 5830 5829 5829 5828 5828 5828 5827 5827 5826 5827 5827 5828 5829 5829 5829 5829 5831 5831 5833 5834 5836 5838 5839
5833 5832 5831 5832 5832 5831 5830 5829 5829 5829 5830 5829 5828 5828 5827 5827 5827 5827 5826 5825 5824 5823 5822 5822 5821 5821 5821 5821 5821 5821 5820 5821 5821 5822 5823 5823 5824 5825 5826 5828 5830 5832 5834
5827 5826 5826 5826 5827 5826 5825 5824 5824 5825 5825 5825 5823 5822 5822 5821 5820 5819 5819 5818 5817 5816 5814 5814 5814 5813 5813 5813 5814 5814 5814 5814 5814 5814 5816 5817 5817 5818 5819 5821 5823 5826 5828
5822 5821 5821 5821 5821 5821 5821 5820 5819 5819 5820 5820 5819 5817 5816 5814 5813 5812 5812 5811 5810 5809 5807 5807 5806 5805 5805 5805 5805 5805 5805 5805 5806 5807 5808 5809 5810 5811 5812 5814 5816 5818 5821
5817 5815 5814 5815 5815 5816 5815 5814 5814 5814 5813 5813 5813 5811 5809 5807 5806 5804 5803 5802 5800 5799 5798 5797 5797 5796 5795 5795 5796 5796 5796 5797 5797 5798 5799 5800 5802 5803 5804 5807 5808 5810 5813
5811 5810 5809 5809 5809 5809 5809 5809 5808 5808 5808 5806 5805 5803 5802 5801 5799 5797 5795 5793 5791 5789 5789 5788 5787 5786 5785 5785 5785 5787 5787 5788 5788 5788 5790 5790 5792 5794 5796 5798 5800 5802 5804
5804 5804 5804 5804 5803 5802 5802 5803 5802 5801 5800 5799 5797 5796 5794 5793 5791 5788 5786 5784 5782 5781 5779 5778 5777 5776 5776 5777 5777 5776 5778 5778 5779 5780 5781 5781 5782 5784 5786 5788 5790 5792 5795
5797 5795 5796 5796 5796 5795 5795 5795 5793 5793 5791 5790 5789 5787 5785 5783 5780 5778 5777 5775 5772 5771 5769 5768 5767 5766 5766 5766 5766 5766 5766 5766 5767 5769 5769 5771 5772 5773 5775 5778 5780 5783 5785
5787 5786 5787 5787 5787 5787 5787 5787 5786 5785 5783 5781 5779 5778 5776 5773 5770 5767 5765 5762 5760 5759 5758 5756 5756 5756 5755 5754 5754 5754 5754 5753 5752 5752 5754 5756 5758 5761 5764 5765 5767 5770 5774
5778 5778 5781 5781 5781 5781 5780 5780 5778 5777 5775 5773 5771 5768 5765 5763 5761 5759 5754 5751 5748 5746 5744 5743 5741 5740 5739 5739 5739 5738 5739 5740 5741 5739 5738 5739 5741 5743 5747 5750 5753 5756 5759
5770 5772 5774 5774 5774 5773 5773 5771 5769 5767 5765 5763 5760 5757 5753 5751 5748 5746 5743 5739 5736 5733 5729 5727 5724 5722 5720 5719 5718 5718 5719 5720 5721 5721 5721 5722 5723 5725 5727 5729 5733 5737 5742
5765 5764 5765 5766 5764 5764 5763 5762 5760 5756 5754 5752 5749 5745 5741 5738 5735 5731 5728 5725 5722 5718 5714 5710 5706 5703 5700 5699 5697 5696 5696 5696 5696 5697 5697 5699 5702 5705 5707 5709 5711 5715 5720
5759 5759 5758 5758 5756 5755 5753 5752 5749 5746 5742 5740 5735 5730 5727 5724 5720 5715 5711 5707 5704 5700 5696 5690 5684 5679 5675 5673 5672 5671 5672 5672 5672 5672 5672 5671 5673 5676 5681 5685 5687 5691 5697
5752 5751 5751 5749 5746 5745 5742 5739 5735 5732 5729 5725 5720 5716 5711 5705 5700 5694 5690 5685 5681 5678 5674 5668 5663 5655 5651 5649 5646 5645 5644 5644 5644 5644 5643 5644 5643 5645 5649 5653 5658 5665 5670
5744 5743 5741 5739 5736 5733 5730 5727 5722 5718 5713 5708 5703 5697 5691 5684 5678 5672 5666 5660 5654 5652 5652 5646 5639 5632 5624 5620 5616 5614 5614 5613 5613 5613 5613 5613 5617 5616 5617 5620 5625 5631 5638
5737 5734 5730 5728 5724 5721 5716 5711 5708 5702 5697 5690 5684 5676 5669 5662 5654 5647 5640 5634 5628 5623 5624 5620 5615 5609 5602 5597 5593 5592 5592 5592 5592 5592 5592 5593 5595 5597 5596 5597 5601 5604 5607
5727 5723 5720 5717 5712 5707 5702 5697 5691 5685 5678 5671 5663 5656 5647 5639 5631 5624 5617 5612 5607 5601 5600 5601 5594 5588 5585 5582 5580 5579 5579 5580 5580 5579 5579 5579 5581 5583 5583 5584 5586 5588 5589
5717 5712 5709 5705 5699 5694 5688 5681 5673 5666 5659 5650 5641 5632 5623 5615 5608 5602 5598 5594 5590 5585 5584 5583 5582 5578 5575 5572 5570 5568 5568 5567 5567 5566 5564 5563 5563 5565 5567 5569 5571 5572 5573
5707 5702 5697 5690 5683 5676 5668 5659 5652 5645 5637 5629 5620 5611 5604 5598 5593 5589 5585 5582 5578 5576 5574 5573 5571 5568 5565 5561 5560 5558 5556 5555 5554 5552 5551 5550 5550 5550 5551 5554 5557 5559 5559
5695 5688 5681 5673 5664 5656 5648 5641 5634 5627 5620 5612 5605 5598 5593 5588 5584 5580 5577 5575 5572 5569 5566 5563 5560 5557 5554 5551 5549 5546 5545 5543 5541 5539 5537 5536 5535 5535 5537 5538 5541 5544 5545
5681 5674 5666 5658 5649 5641 5632 5625 5619 5612 5606 5601 5594 5589 5585 5582 5578 5574 5571 5569 5565 5562 5558 5554 5550 5547 5545 5541 5538 5536 5534 5532 5529 5528 5525 5523 5524 5524 5524 5526 5528 5530 5531
5670 5662 5652 5642 5631 5621 5612 5605 5601 5598 5594 5590 5586 5582 5578 5574 5571 5568 5564 5560 5557 5554 5550 5546 5542 5539 5536 5533 5529 5527 5524 5523 5521 5518 5517 5515 5516 5514 5514 5515 5515 5517 5519
5656 5646 5635 5623 5610 5600 5593 5589 5588 5587 5584 5581 5577 5574 5571 5567 5564 5560 5556 5552 5548 5545 5540 5537 5534 5531 5528 5523 5521 5518 5515 5514 5512 5510 5508 5507 5506 5506 5504 5505 5505 5507 5508
5641 5629 5616 5603 5591 5585 5581 5579 5579 5577 5575 5572 5569 5566 5562 5559 5555 5551 5548 5544 5540 5536 5531 5528 5524 5522 5518 5514 5511 5509 5507 5505 5502 5500 5497 5499 5495 5495 5495 5494 5495 5496 5498
5624 5611 5597 5588 5582 5576 5575 5572 5570 5568 5566 5563 5560 5557 5553 5550 5546 5542 5539 5535 5531 5526 5521 5517 5514 5511 5507 5504 5501 5499 5497 5494 5493 5489 5485 5485 5485 5483 5484 5484 5483 5485 5487
5606 5593 5586 5580 5575 5570 5567 5564 5561 5559 5558 5555 5552 5548 5544 5541 5537 5533 5528 5525 5521 5516 5511 5507 5502 5498 5496 5493 5491 5489 5487 5484 5481 5478 5473 5469 5467 5466 5470 5471 5470 5472 5475